| time (UTC) | temp F | wind direction | speed MPH | gust MPH | rain 1hr in | rain 24hr in | rain mn in | humidity % | barometer mb |
| 20260504050553 | 55 | 350 | 9.0 | 0.0 | 0.00 | 0.00 | 0.00 | 40 | 1004.2 |
| 20260504045552 | 55 | 355 | 7.0 | 0.0 | 0.00 | 0.00 | 0.00 | 42 | 1004.2 |
| 20260504045052 | 56 | 348 | 7.0 | 0.0 | 0.00 | 0.00 | 0.00 | 42 | 1004.2 |
| 20260504044555 | 56 | 341 | 7.0 | 0.0 | 0.00 | 0.00 | 0.00 | 41 | 1004.0 |
| 20260504044052 | 56 | 341 | 8.0 | 0.0 | 0.00 | 0.00 | 0.00 | 40 | 1004.0 |
| 20260504043552 | 57 | 331 | 11.0 | 0.0 | 0.00 | 0.00 | 0.00 | 40 | 1004.1 |
| 20260504043058 | 58 | 318 | 12.0 | 0.0 | 0.00 | 0.00 | 0.00 | 38 | 1004.2 |
| 20260504042553 | 58 | 338 | 12.0 | 0.0 | 0.00 | 0.00 | 0.00 | 38 | 1004.2 |
| 20260504042052 | 57 | 299 | 10.0 | 0.0 | 0.00 | 0.00 | 0.00 | 39 | 1004.2 |
| 20260504041552 | 57 | 324 | 9.0 | 0.0 | 0.00 | 0.00 | 0.00 | 40 | 1003.9 |
| 20260504041052 | 57 | 323 | 8.0 | 0.0 | 0.00 | 0.00 | 0.00 | 39 | 1003.8 |
| 20260504040552 | 58 | 306 | 8.0 | 0.0 | 0.00 | 0.00 | 0.00 | 39 | 1003.8 |
| 20260504040123 | 58 | 309 | 8.0 | 0.0 | 0.00 | 0.00 | 0.00 | 39 | 1003.7 |
| 20260504035552 | 59 | 321 | 9.0 | 0.0 | 0.00 | 0.00 | 0.00 | 38 | 1003.6 |
| 20260504035053 | 59 | 313 | 10.0 | 0.0 | 0.00 | 0.00 | 0.00 | 37 | 1003.4 |
| 20260504034556 | 59 | 312 | 10.0 | 0.0 | 0.00 | 0.00 | 0.00 | 37 | 1003.4 |
| 20260504034051 | 60 | 321 | 11.0 | 0.0 | 0.00 | 0.00 | 0.00 | 36 | 1003.3 |
| 20260504033552 | 60 | 337 | 13.0 | 0.0 | 0.00 | 0.00 | 0.00 | 36 | 1003.1 |
| 20260504033052 | 60 | 11 | 15.0 | 0.0 | 0.00 | 0.00 | 0.00 | 36 | 1002.8 |
| 20260504032551 | 60 | 335 | 16.0 | 0.0 | 0.00 | 0.00 | 0.00 | 36 | 1002.8 |
| 20260504032051 | 61 | 355 | 17.0 | 0.0 | 0.00 | 0.00 | 0.00 | 35 | 1002.6 |
| 20260504031600 | 61 | 327 | 18.0 | 0.0 | 0.00 | 0.00 | 0.00 | 34 | 1002.5 |
| 20260504031052 | 62 | 325 | 20.0 | 0.0 | 0.00 | 0.00 | 0.00 | 34 | 1002.4 |
| 20260504030551 | 63 | 340 | 19.0 | 0.0 | 0.00 | 0.00 | 0.00 | 33 | 1002.2 |
| 20260504030051 | 65 | 334 | 12.0 | 0.0 | 0.00 | 0.00 | 0.00 | 31 | 1002.1 |
| 20260504025554 | 65 | 268 | 9.0 | 0.0 | 0.00 | 0.00 | 0.00 | 32 | 1001.3 |
| 20260504025055 | 65 | 342 | 8.0 | 0.0 | 0.00 | 0.00 | 0.00 | 32 | 1001.2 |
| 20260504024551 | 65 | 284 | 8.0 | 0.0 | 0.00 | 0.00 | 0.00 | 32 | 1001.2 |
| 20260504024050 | 65 | 325 | 9.0 | 0.0 | 0.00 | 0.00 | 0.00 | 32 | 1001.2 |
| 20260504023550 | 66 | 302 | 8.0 | 0.0 | 0.00 | 0.00 | 0.00 | 32 | 1001.2 |
| 20260504023050 | 66 | 284 | 9.0 | 0.0 | 0.00 | 0.00 | 0.00 | 31 | 1001.1 |
| 20260504022551 | 66 | 285 | 9.0 | 0.0 | 0.00 | 0.00 | 0.00 | 31 | 1001.1 |
| 20260504022050 | 66 | 265 | 10.0 | 0.0 | 0.00 | 0.00 | 0.00 | 31 | 1001.0 |
| 20260504021551 | 67 | 264 | 9.0 | 0.0 | 0.00 | 0.00 | 0.00 | 31 | 1001.0 |
| 20260504021050 | 67 | 321 | 9.0 | 0.0 | 0.00 | 0.00 | 0.00 | 31 | 1001.1 |
| 20260504020550 | 68 | 292 | 10.0 | 0.0 | 0.00 | 0.00 | 0.00 | 30 | 1001.0 |
| 20260504020106 | 68 | 292 | 11.0 | 0.0 | 0.00 | 0.00 | 0.00 | 30 | 1000.9 |
| 20260504015552 | 68 | 309 | 11.0 | 0.0 | 0.00 | 0.00 | 0.00 | 30 | 1000.9 |
| 20260504015052 | 69 | 326 | 12.0 | 0.0 | 0.00 | 0.00 | 0.00 | 29 | 1000.9 |
| 20260504014550 | 69 | 273 | 13.0 | 0.0 | 0.00 | 0.00 | 0.00 | 29 | 1001.0 |
| 20260504014049 | 70 | 311 | 14.0 | 0.0 | 0.00 | 0.00 | 0.00 | 29 | 1000.9 |
| 20260504013550 | 70 | 326 | 14.0 | 0.0 | 0.00 | 0.00 | 0.00 | 28 | 1000.9 |
| 20260504013050 | 71 | 346 | 14.0 | 0.0 | 0.00 | 0.00 | 0.00 | 26 | 1000.8 |
| 20260504012550 | 71 | 283 | 13.0 | 0.0 | 0.00 | 0.00 | 0.00 | 26 | 1000.7 |
| 20260504012049 | 72 | 318 | 12.0 | 0.0 | 0.00 | 0.00 | 0.00 | 24 | 1000.8 |
| 20260504011550 | 72 | 254 | 15.0 | 0.0 | 0.00 | 0.00 | 0.00 | 23 | 1000.8 |
| 20260504011049 | 73 | 19 | 17.0 | 0.0 | 0.00 | 0.00 | 0.00 | 22 | 1000.8 |
| 20260504010549 | 73 | 288 | 18.0 | 0.0 | 0.00 | 0.00 | 0.00 | 21 | 1000.9 |
| 20260504010053 | 73 | 266 | 20.0 | 0.0 | 0.00 | 0.00 | 0.00 | 20 | 1000.9 |
| 20260504005549 | 74 | 261 | 20.0 | 0.0 | 0.00 | 0.00 | 0.00 | 21 | 1000.8 |
| 20260504005052 | 73 | 264 | 21.0 | 0.0 | 0.00 | 0.00 | 0.00 | 21 | 1000.8 |
| 20260504004549 | 73 | 261 | 23.0 | 0.0 | 0.00 | 0.00 | 0.00 | 20 | 1000.7 |
| 20260504004049 | 73 | 258 | 24.0 | 0.0 | 0.00 | 0.00 | 0.00 | 20 | 1000.8 |
| 20260504003548 | 74 | 258 | 23.0 | 0.0 | 0.00 | 0.00 | 0.00 | 20 | 1000.9 |
| 20260504003051 | 74 | 267 | 22.0 | 0.0 | 0.00 | 0.00 | 0.00 | 20 | 1001.1 |
| 20260504002547 | 74 | 258 | 22.0 | 0.0 | 0.00 | 0.00 | 0.00 | 20 | 1001.0 |
| 20260504002046 | 75 | 336 | 23.0 | 0.0 | 0.00 | 0.00 | 0.00 | 19 | 1001.2 |
| 20260504001552 | 74 | 271 | 22.0 | 0.0 | 0.00 | 0.00 | 0.00 | 19 | 1001.3 |
| 20260504001046 | 75 | 284 | 23.0 | 0.0 | 0.00 | 0.00 | 0.00 | 19 | 1001.3 |
| 20260504000547 | 75 | 272 | 23.0 | 0.0 | 0.00 | 0.00 | 0.00 | 19 | 1001.4 |
| 20260504000044 | 75 | 244 | 22.0 | 0.0 | 0.00 | 0.00 | 0.00 | 19 | 1001.3 |
| 20260503235544 | 75 | 290 | 22.0 | 0.0 | 0.00 | 0.00 | 0.00 | 19 | 1001.5 |
| 20260503235047 | 75 | 282 | 24.0 | 0.0 | 0.00 | 0.00 | 0.00 | 20 | 1001.6 |
| 20260503234602 | 75 | 251 | 25.0 | 0.0 | 0.00 | 0.00 | 0.00 | 19 | 1001.5 |
| 20260503234048 | 75 | 245 | 25.0 | 0.0 | 0.00 | 0.00 | 0.00 | 19 | 1001.7 |
| 20260503233547 | 76 | 298 | 22.0 | 0.0 | 0.00 | 0.00 | 0.00 | 19 | 1001.7 |
| 20260503233048 | 75 | 263 | 20.0 | 0.0 | 0.00 | 0.00 | 0.00 | 21 | 1001.7 |
| 20260503232543 | 75 | 269 | 20.0 | 0.0 | 0.00 | 0.00 | 0.00 | 21 | 1001.7 |
| 20260503232042 | 75 | 259 | 24.0 | 0.0 | 0.00 | 0.00 | 0.00 | 22 | 1001.9 |
| 20260503231542 | 75 | 262 | 25.0 | 0.0 | 0.00 | 0.00 | 0.00 | 21 | 1002.0 |
| 20260503231041 | 76 | 241 | 22.0 | 0.0 | 0.00 | 0.00 | 0.00 | 21 | 1001.8 |
| 20260503230544 | 74 | 252 | 22.0 | 0.0 | 0.00 | 0.00 | 0.00 | 22 | 1002.3 |
| 20260503230041 | 75 | 234 | 23.0 | 0.0 | 0.00 | 0.00 | 0.00 | 22 | 1002.4 |
| 20260503225538 | 75 | 257 | 24.0 | 0.0 | 0.00 | 0.00 | 0.00 | 22 | 1002.6 |
| 20260503225040 | 75 | 244 | 22.0 | 0.0 | 0.00 | 0.00 | 0.00 | 22 | 1002.8 |
| 20260503224538 | 76 | 245 | 21.0 | 0.0 | 0.00 | 0.00 | 0.00 | 21 | 1002.9 |
| 20260503224036 | 75 | 268 | 21.0 | 0.0 | 0.00 | 0.00 | 0.00 | 21 | 1002.9 |
| 20260503223535 | 75 | 248 | 20.0 | 0.0 | 0.00 | 0.00 | 0.00 | 21 | 1003.0 |
| 20260503223036 | 74 | 259 | 22.0 | 0.0 | 0.00 | 0.00 | 0.00 | 21 | 1003.2 |
| 20260503222538 | 74 | 243 | 20.0 | 0.0 | 0.00 | 0.00 | 0.00 | 20 | 1003.3 |
| 20260503222034 | 75 | 264 | 20.0 | 0.0 | 0.00 | 0.00 | 0.00 | 20 | 1003.3 |
| 20260503221537 | 75 | 269 | 19.0 | 0.0 | 0.00 | 0.00 | 0.00 | 19 | 1003.6 |
| 20260503221036 | 75 | 263 | 18.0 | 0.0 | 0.00 | 0.00 | 0.00 | 19 | 1003.7 |
| 20260503220535 | 75 | 253 | 20.0 | 0.0 | 0.00 | 0.00 | 0.00 | 19 | 1003.8 |
| 20260503220031 | 74 | 246 | 22.0 | 0.0 | 0.00 | 0.00 | 0.00 | 20 | 1004.0 |
| 20260503215531 | 74 | 254 | 21.0 | 0.0 | 0.00 | 0.00 | 0.00 | 19 | 1004.0 |
| 20260503215033 | 74 | 265 | 19.0 | 0.0 | 0.00 | 0.00 | 0.00 | 20 | 1004.1 |
| 20260503214530 | 73 | 261 | 21.0 | 0.0 | 0.00 | 0.00 | 0.00 | 21 | 1004.1 |
| 20260503214031 | 74 | 259 | 20.0 | 0.0 | 0.00 | 0.00 | 0.00 | 19 | 1004.2 |
| 20260503213528 | 73 | 254 | 19.0 | 0.0 | 0.00 | 0.00 | 0.00 | 21 | 1004.3 |
| 20260503213028 | 73 | 264 | 20.0 | 0.0 | 0.00 | 0.00 | 0.00 | 23 | 1004.6 |
| 20260503212528 | 73 | 268 | 20.0 | 0.0 | 0.00 | 0.00 | 0.00 | 24 | 1004.6 |
| 20260503212026 | 72 | 234 | 20.0 | 0.0 | 0.00 | 0.00 | 0.00 | 24 | 1004.8 |
| 20260503211526 | 73 | 252 | 20.0 | 0.0 | 0.00 | 0.00 | 0.00 | 23 | 1004.9 |
| 20260503211025 | 73 | 263 | 19.0 | 0.0 | 0.00 | 0.00 | 0.00 | 23 | 1005.0 |
| 20260503210526 | 72 | 248 | 19.0 | 0.0 | 0.00 | 0.00 | 0.00 | 22 | 1005.1 |
| 20260503210025 | 72 | 242 | 19.0 | 0.0 | 0.00 | 0.00 | 0.00 | 22 | 1005.1 |
| 20260503205524 | 73 | 296 | 20.0 | 0.0 | 0.00 | 0.00 | 0.00 | 25 | 1005.1 |
| 20260503205023 | 72 | 268 | 21.0 | 0.0 | 0.00 | 0.00 | 0.00 | 25 | 1005.3 |
| 20260503204524 | 72 | 246 | 19.0 | 0.0 | 0.00 | 0.00 | 0.00 | 26 | 1005.4 |
| 20260503204022 | 72 | 265 | 20.0 | 0.0 | 0.00 | 0.00 | 0.00 | 26 | 1005.4 |
| 20260503203522 | 72 | 266 | 20.0 | 0.0 | 0.00 | 0.00 | 0.00 | 25 | 1005.5 |
| 20260503203021 | 72 | 233 | 20.0 | 0.0 | 0.00 | 0.00 | 0.00 | 25 | 1005.6 |
| 20260503202522 | 72 | 255 | 20.0 | 0.0 | 0.00 | 0.00 | 0.00 | 23 | 1005.6 |
| 20260503202023 | 73 | 260 | 19.0 | 0.0 | 0.00 | 0.00 | 0.00 | 23 | 1005.6 |
| 20260503201521 | 74 | 250 | 20.0 | 0.0 | 0.00 | 0.00 | 0.00 | 22 | 1005.6 |
| 20260503201020 | 74 | 237 | 20.0 | 0.0 | 0.00 | 0.00 | 0.00 | 22 | 1005.8 |
| 20260503200520 | 74 | 266 | 20.0 | 0.0 | 0.00 | 0.00 | 0.00 | 23 | 1005.7 |
| 20260503200019 | 73 | 249 | 22.0 | 0.0 | 0.00 | 0.00 | 0.00 | 21 | 1005.9 |
| 20260503195519 | 73 | 246 | 22.0 | 0.0 | 0.00 | 0.00 | 0.00 | 22 | 1006.1 |
| 20260503195022 | 74 | 260 | 22.0 | 0.0 | 0.00 | 0.00 | 0.00 | 23 | 1006.2 |
| 20260503194517 | 74 | 248 | 22.0 | 0.0 | 0.00 | 0.00 | 0.00 | 23 | 1006.3 |
| 20260503194016 | 73 | 247 | 20.0 | 0.0 | 0.00 | 0.00 | 0.00 | 26 | 1006.3 |
| 20260503193519 | 73 | 241 | 20.0 | 0.0 | 0.00 | 0.00 | 0.00 | 27 | 1006.6 |
| 20260503193015 | 73 | 252 | 22.0 | 0.0 | 0.00 | 0.00 | 0.00 | 26 | 1006.8 |
| 20260503192514 | 73 | 267 | 22.0 | 0.0 | 0.00 | 0.00 | 0.00 | 25 | 1006.8 |
| 20260503192014 | 73 | 264 | 22.0 | 0.0 | 0.00 | 0.00 | 0.00 | 26 | 1007.0 |
| 20260503191512 | 73 | 250 | 22.0 | 0.0 | 0.00 | 0.00 | 0.00 | 22 | 1007.1 |
| 20260503191011 | 73 | 284 | 22.0 | 0.0 | 0.00 | 0.00 | 0.00 | 26 | 1007.2 |
| 20260503190510 | 73 | 252 | 21.0 | 0.0 | 0.00 | 0.00 | 0.00 | 26 | 1007.3 |
| 20260503190010 | 72 | 238 | 22.0 | 0.0 | 0.00 | 0.00 | 0.00 | 27 | 1007.5 |
| 20260503185509 | 72 | 265 | 23.0 | 0.0 | 0.00 | 0.00 | 0.00 | 27 | 1007.6 |
| 20260503185008 | 72 | 249 | 22.0 | 0.0 | 0.00 | 0.00 | 0.00 | 27 | 1007.7 |
| 20260503184514 | 72 | 246 | 19.0 | 0.0 | 0.00 | 0.00 | 0.00 | 26 | 1008.0 |
| 20260503184011 | 73 | 261 | 19.0 | 0.0 | 0.00 | 0.00 | 0.00 | 26 | 1008.2 |
| 20260503183506 | 72 | 247 | 20.0 | 0.0 | 0.00 | 0.00 | 0.00 | 27 | 1008.3 |
| 20260503183005 | 72 | 360 | 19.0 | 0.0 | 0.00 | 0.00 | 0.00 | 26 | 1008.4 |
| 20260503182506 | 72 | 266 | 19.0 | 0.0 | 0.00 | 0.00 | 0.00 | 27 | 1008.4 |
| 20260503182006 | 72 | 263 | 21.0 | 0.0 | 0.00 | 0.00 | 0.00 | 28 | 1008.6 |
| 20260503181506 | 71 | 286 | 22.0 | 0.0 | 0.00 | 0.00 | 0.00 | 27 | 1008.6 |
| 20260503181004 | 70 | 234 | 21.0 | 0.0 | 0.00 | 0.00 | 0.00 | 29 | 1008.8 |
| 20260503180503 | 71 | 255 | 21.0 | 0.0 | 0.00 | 0.00 | 0.00 | 27 | 1008.7 |
| 20260503180002 | 70 | 254 | 21.0 | 0.0 | 0.00 | 0.00 | 0.00 | 29 | 1008.8 |
| 20260503175500 | 71 | 236 | 20.0 | 0.0 | 0.00 | 0.00 | 0.00 | 29 | 1009.0 |
| 20260503175001 | 71 | 247 | 19.0 | 0.0 | 0.00 | 0.00 | 0.00 | 29 | 1009.1 |
| 20260503174601 | 71 | 252 | 19.0 | 0.0 | 0.00 | 0.00 | 0.00 | 29 | 1009.2 |
| 20260503174059 | 70 | 225 | 20.0 | 0.0 | 0.00 | 0.00 | 0.00 | 29 | 1009.4 |
| 20260503173558 | 69 | 235 | 20.0 | 0.0 | 0.00 | 0.00 | 0.00 | 29 | 1009.6 |
| 20260503173110 | 70 | 244 | 17.0 | 0.0 | 0.00 | 0.00 | 0.00 | 29 | 1009.6 |
| 20260503172057 | 69 | 221 | 19.0 | 0.0 | 0.00 | 0.00 | 0.00 | 29 | 1009.8 |
| 20260503171558 | 69 | 242 | 19.0 | 0.0 | 0.00 | 0.00 | 0.00 | 29 | 1009.9 |
| 20260503171055 | 69 | 240 | 19.0 | 0.0 | 0.00 | 0.00 | 0.00 | 30 | 1009.7 |
| 20260503170555 | 69 | 248 | 20.0 | 0.0 | 0.00 | 0.00 | 0.00 | 30 | 1010.0 |
| 20260503150539 | 63 | 222 | 20.0 | 0.0 | 0.00 | 0.00 | 0.00 | 32 | 1012.0 |
| 20260503131023 | 54 | 178 | 8.0 | 0.0 | 0.00 | 0.00 | 0.00 | 43 | 1012.9 |
| 20260503130518 | 53 | 187 | 8.0 | 0.0 | 0.00 | 0.00 | 0.00 | 44 | 1012.9 |
| 20260503110504 | 43 | 218 | 1.0 | 0.0 | 0.00 | 0.00 | 0.00 | 53 | 1013.8 |
| 20260503081542 | 35 | 85 | 0.0 | 0.0 | 0.00 | 0.00 | 0.00 | 69 | 1014.8 |
| 20260503081039 | 34 | 85 | 0.0 | 0.0 | 0.00 | 0.00 | 0.00 | 71 | 1014.9 |
| 20260503080542 | 33 | 85 | 1.0 | 0.0 | 0.00 | 0.00 | 0.00 | 70 | 1014.9 |
| 20260503072033 | 34 | 76 | 2.0 | 0.0 | 0.00 | 0.00 | 0.00 | 67 | 1014.9 |
| 20260503071545 | 34 | 76 | 1.0 | 0.0 | 0.00 | 0.00 | 0.00 | 67 | 1014.9 |
| 20260503071032 | 34 | 76 | 1.0 | 0.0 | 0.00 | 0.00 | 0.00 | 66 | 1015.0 |
| 20260503070532 | 34 | 76 | 2.0 | 0.0 | 0.00 | 0.00 | 0.00 | 66 | 1015.0 |
| 20260503055025 | 34 | 72 | 1.0 | 0.0 | 0.00 | 0.00 | 0.00 | 65 | 1014.9 |
| 20260503054531 | 35 | 72 | 1.0 | 0.0 | 0.00 | 0.00 | 0.00 | 64 | 1014.8 |
| 20260503054024 | 35 | 72 | 1.0 | 0.0 | 0.00 | 0.00 | 0.00 | 63 | 1014.8 |
| 20260503053524 | 35 | 72 | 2.0 | 0.0 | 0.00 | 0.00 | 0.00 | 63 | 1014.8 |
| 20260503053024 | 35 | 72 | 3.0 | 0.0 | 0.00 | 0.00 | 0.00 | 63 | 1014.9 |
| 20260503052024 | 35 | 72 | 3.0 | 0.0 | 0.00 | 0.00 | 0.00 | 63 | 1014.8 |
| 20260503051523 | 35 | 72 | 3.0 | 0.0 | 0.00 | 0.00 | 0.00 | 62 | 1014.9 |